Location: Alumbaugh
(37.5976°N, 83.9299°W)
Time: 02:35:44
(UTC+00:00)

Oscar 11 - Pass Details

Date: 29 March 2023
Orbit: 609 x 619 km, 97.7° (Epoch: 07 June)

Event Time Altitude Azimuth Distance (km) Brightness Sun altitude
Rises 10:09:19 0° 9° (N) 2,878 10.8 -15.7°
Reaches altitude 10° 10:11:31 10° 7° (N) 1,970 9.9 -15.3°
Maximum altitude 10:15:46 71° 284° (WNW) 647 6.9 -14.5°
Drops below altitude 10° 10:20:01 10° 200° (SSW) 1,961 9.3 -13.7°
Enters shadow 10:21:09 - 199° (SSW) 2,430 9.8 -13.5°
